Back to catalog

STARLINK-33778

AliveCommunicationsVLEO
NORAD 63877·PAYLOAD·🇺🇸 United States

Launched May 10, 2025 from Vandenberg Space Force Base

Loading…

Next Passes (next 24 hours)

TLE

FreshSource: CelesTrak SupGP

Epoch: Sep 14, 2026, 14:11 UTC

1 63877C 25094P   26257.59145833  .00028383  00000+0  98773-3 0  2578
2 63877  69.9985 116.7523 0003149 265.1681 121.0742 15.29552845    14

Track STARLINK-33778 in real time with AllMySat

Download on the App Store